#datetime,building,power
2022-02-21T00:00:00,75s,1.26
2022-02-21T00:01:00,75s,1.28
2022-02-21T00:02:00,75s,1.59
2022-02-21T00:03:00,75s,1.26
2022-02-21T00:04:00,75s,1.19
2022-02-21T00:05:00,75s,1.24
2022-02-21T00:06:00,75s,1.38
2022-02-21T00:07:00,75s,1.32
2022-02-21T00:08:00,75s,1.32
2022-02-21T00:09:00,75s,1.41
2022-02-21T00:10:00,75s,1.47
2022-02-21T00:11:00,75s,1.69
2022-02-21T00:12:00,75s,1.34
2022-02-21T00:13:00,75s,1.41
2022-02-21T00:14:00,75s,1.40
2022-02-21T00:15:00,75s,1.40
2022-02-21T00:16:00,75s,1.30
2022-02-21T00:17:00,75s,1.30
2022-02-21T00:18:00,75s,1.37
2022-02-21T00:19:00,75s,1.62
2022-02-21T00:20:00,75s,1.67
2022-02-21T00:21:00,75s,1.44
2022-02-21T00:22:00,75s,1.51
2022-02-21T00:23:00,75s,1.55
2022-02-21T00:24:00,75s,1.65
2022-02-21T00:25:00,75s,1.46
2022-02-21T00:26:00,75s,1.43
2022-02-21T00:27:00,75s,1.77
2022-02-21T00:28:00,75s,1.35
2022-02-21T00:29:00,75s,1.71
2022-02-21T00:30:00,75s,1.50
2022-02-21T00:31:00,75s,1.35
2022-02-21T00:32:00,75s,1.35
2022-02-21T00:33:00,75s,1.58
2022-02-21T00:34:00,75s,1.26
2022-02-21T00:35:00,75s,1.38
2022-02-21T00:36:00,75s,1.45
2022-02-21T00:37:00,75s,1.76
2022-02-21T00:38:00,75s,1.34
2022-02-21T00:39:00,75s,1.24
2022-02-21T00:40:00,75s,1.31
2022-02-21T00:41:00,75s,1.71
2022-02-21T00:42:00,75s,1.31
2022-02-21T00:43:00,75s,1.31
2022-02-21T00:44:00,75s,1.30
2022-02-21T00:45:00,75s,1.39
2022-02-21T00:46:00,75s,1.36
2022-02-21T00:47:00,75s,2.01
2022-02-21T00:48:00,75s,2.04
2022-02-21T00:49:00,75s,1.39
2022-02-21T00:50:00,75s,1.65
2022-02-21T00:51:00,75s,1.35
2022-02-21T00:52:00,75s,1.22
2022-02-21T00:53:00,75s,1.26
2022-02-21T00:54:00,75s,1.26
2022-02-21T00:55:00,75s,1.28
2022-02-21T00:56:00,75s,1.86
2022-02-21T00:57:00,75s,1.29
2022-02-21T00:58:00,75s,1.35
2022-02-21T00:59:00,75s,1.45
2022-02-21T01:00:00,75s,1.43
2022-02-21T01:01:00,75s,1.95
2022-02-21T01:02:00,75s,1.23
2022-02-21T01:03:00,75s,1.26
2022-02-21T01:04:00,75s,1.27
2022-02-21T01:05:00,75s,1.25
2022-02-21T01:06:00,75s,1.23
2022-02-21T01:07:00,75s,1.80
2022-02-21T01:08:00,75s,1.18
2022-02-21T01:09:00,75s,1.35
2022-02-21T01:10:00,75s,1.37
2022-02-21T01:11:00,75s,1.43
2022-02-21T01:12:00,75s,1.71
2022-02-21T01:13:00,75s,1.35
2022-02-21T01:14:00,75s,1.27
2022-02-21T01:15:00,75s,1.30
2022-02-21T01:16:00,75s,1.30
2022-02-21T01:17:00,75s,1.39
2022-02-21T01:18:00,75s,1.28
2022-02-21T01:19:00,75s,1.27
2022-02-21T01:20:00,75s,1.36
2022-02-21T01:21:00,75s,1.28
2022-02-21T01:22:00,75s,1.26
2022-02-21T01:23:00,75s,1.19
2022-02-21T01:24:00,75s,1.19
2022-02-21T01:25:00,75s,1.19
2022-02-21T01:26:00,75s,1.44
2022-02-21T01:27:00,75s,1.27
2022-02-21T01:28:00,75s,1.27
2022-02-21T01:29:00,75s,1.61
2022-02-21T01:30:00,75s,1.27
2022-02-21T01:31:00,75s,10.59
2022-02-21T01:32:00,75s,10.47
2022-02-21T01:33:00,75s,10.34
2022-02-21T01:34:00,75s,10.41
2022-02-21T01:35:00,75s,10.67
2022-02-21T01:36:00,75s,1.36
2022-02-21T01:37:00,75s,1.36
2022-02-21T01:38:00,75s,1.46
2022-02-21T01:39:00,75s,1.52
2022-02-21T01:40:00,75s,1.48
2022-02-21T01:41:00,75s,1.45
2022-02-21T01:42:00,75s,1.45
2022-02-21T01:43:00,75s,1.61
2022-02-21T01:44:00,75s,1.64
2022-02-21T01:45:00,75s,1.57
2022-02-21T01:46:00,75s,1.46
2022-02-21T01:47:00,75s,1.90
2022-02-21T01:48:00,75s,1.31
2022-02-21T01:49:00,75s,1.44
2022-02-21T01:50:00,75s,1.28
2022-02-21T01:51:00,75s,1.28
2022-02-21T01:52:00,75s,1.26
2022-02-21T01:53:00,75s,1.26
2022-02-21T01:54:00,75s,1.92
2022-02-21T01:55:00,75s,1.54
2022-02-21T01:56:00,75s,1.30
2022-02-21T01:57:00,75s,1.27
2022-02-21T01:58:00,75s,1.34
2022-02-21T01:59:00,75s,1.28
2022-02-21T02:00:00,75s,1.27
2022-02-21T02:01:00,75s,1.21
2022-02-21T02:02:00,75s,1.49
2022-02-21T02:03:00,75s,1.23
2022-02-21T02:04:00,75s,1.97
2022-02-21T02:05:00,75s,1.25
2022-02-21T02:06:00,75s,1.32
2022-02-21T02:07:00,75s,1.32
2022-02-21T02:08:00,75s,1.43
2022-02-21T02:09:00,75s,1.63
2022-02-21T02:10:00,75s,1.41
2022-02-21T02:11:00,75s,1.37
2022-02-21T02:12:00,75s,1.41
2022-02-21T02:13:00,75s,1.90
2022-02-21T02:14:00,75s,1.79
2022-02-21T02:15:00,75s,1.32
2022-02-21T02:16:00,75s,1.31
2022-02-21T02:17:00,75s,1.33
2022-02-21T02:18:00,75s,1.51
2022-02-21T02:19:00,75s,1.54
2022-02-21T02:20:00,75s,1.48
2022-02-21T02:21:00,75s,1.98
2022-02-21T02:22:00,75s,1.57
2022-02-21T02:23:00,75s,1.49
2022-02-21T02:24:00,75s,1.91
2022-02-21T02:25:00,75s,1.56
2022-02-21T02:26:00,75s,1.56
2022-02-21T02:27:00,75s,1.87
2022-02-21T02:28:00,75s,1.53
2022-02-21T02:29:00,75s,1.53
2022-02-21T02:30:00,75s,2.11
2022-02-21T02:31:00,75s,1.54
2022-02-21T02:32:00,75s,1.53
2022-02-21T02:33:00,75s,2.06
2022-02-21T02:34:00,75s,1.58
2022-02-21T02:35:00,75s,1.35
2022-02-21T02:36:00,75s,1.41
2022-02-21T02:37:00,75s,1.39
2022-02-21T02:38:00,75s,1.41
2022-02-21T02:39:00,75s,1.28
2022-02-21T02:40:00,75s,1.36
2022-02-21T02:41:00,75s,1.36
2022-02-21T02:42:00,75s,1.35
2022-02-21T02:43:00,75s,1.31
2022-02-21T02:44:00,75s,1.33
2022-02-21T02:45:00,75s,1.32
2022-02-21T02:46:00,75s,1.24
2022-02-21T02:47:00,75s,1.31
2022-02-21T02:48:00,75s,2.08
2022-02-21T02:49:00,75s,1.45
2022-02-21T02:50:00,75s,1.35
2022-02-21T02:51:00,75s,1.34
2022-02-21T02:52:00,75s,1.36
2022-02-21T02:53:00,75s,1.36
2022-02-21T02:54:00,75s,1.36
2022-02-21T02:55:00,75s,2.31
2022-02-21T02:56:00,75s,2.38
2022-02-21T02:57:00,75s,3.65
2022-02-21T02:58:00,75s,2.44
2022-02-21T02:59:00,75s,2.23
2022-02-21T03:00:00,75s,2.69
2022-02-21T03:01:00,75s,2.33
2022-02-21T03:02:00,75s,2.04
2022-02-21T03:03:00,75s,2.08
2022-02-21T03:04:00,75s,2.07
2022-02-21T03:05:00,75s,2.05
2022-02-21T03:06:00,75s,2.00
2022-02-21T03:07:00,75s,2.12
2022-02-21T03:08:00,75s,1.98
2022-02-21T03:09:00,75s,2.07
2022-02-21T03:10:00,75s,2.03
2022-02-21T03:11:00,75s,2.67
2022-02-21T03:12:00,75s,1.93
2022-02-21T03:13:00,75s,2.46
2022-02-21T03:14:00,75s,1.96
2022-02-21T03:15:00,75s,1.87
2022-02-21T03:16:00,75s,2.15
2022-02-21T03:17:00,75s,1.94
2022-02-21T03:18:00,75s,1.90
2022-02-21T03:19:00,75s,1.97
2022-02-21T03:20:00,75s,2.00
2022-02-21T03:21:00,75s,2.19
2022-02-21T03:22:00,75s,2.46
2022-02-21T03:23:00,75s,1.78
2022-02-21T03:24:00,75s,1.79
2022-02-21T03:25:00,75s,1.81
2022-02-21T03:26:00,75s,1.29
2022-02-21T03:27:00,75s,1.28
2022-02-21T03:28:00,75s,1.29
2022-02-21T03:29:00,75s,1.27
2022-02-21T03:30:00,75s,1.24
2022-02-21T03:31:00,75s,1.84
2022-02-21T03:32:00,75s,1.29
2022-02-21T03:33:00,75s,1.37
2022-02-21T03:34:00,75s,1.44
2022-02-21T03:35:00,75s,2.22
2022-02-21T03:36:00,75s,2.24
2022-02-21T03:37:00,75s,2.53
2022-02-21T03:38:00,75s,2.32
2022-02-21T03:39:00,75s,2.58
2022-02-21T03:40:00,75s,2.44
2022-02-21T03:41:00,75s,2.44
2022-02-21T03:42:00,75s,2.45
2022-02-21T03:43:00,75s,2.38
2022-02-21T03:44:00,75s,2.37
2022-02-21T03:45:00,75s,2.45
2022-02-21T03:46:00,75s,2.69
2022-02-21T03:47:00,75s,3.38
2022-02-21T03:48:00,75s,2.42
2022-02-21T03:49:00,75s,2.51
2022-02-21T03:50:00,75s,2.61
2022-02-21T03:51:00,75s,2.73
2022-02-21T03:52:00,75s,2.36
2022-02-21T03:53:00,75s,2.41
2022-02-21T03:54:00,75s,3.05
2022-02-21T03:55:00,75s,2.41
2022-02-21T03:56:00,75s,2.39
2022-02-21T03:57:00,75s,2.46
2022-02-21T03:58:00,75s,2.46
2022-02-21T03:59:00,75s,2.45
2022-02-21T04:00:00,75s,2.44
2022-02-21T04:01:00,75s,2.44
2022-02-21T04:02:00,75s,2.74
2022-02-21T04:03:00,75s,2.97
2022-02-21T04:04:00,75s,2.72
2022-02-21T04:05:00,75s,2.61
2022-02-21T04:06:00,75s,2.61
2022-02-21T04:07:00,75s,2.75
2022-02-21T04:08:00,75s,2.70
2022-02-21T04:09:00,75s,3.15
2022-02-21T04:10:00,75s,2.86
2022-02-21T04:11:00,75s,3.27
2022-02-21T04:12:00,75s,3.08
2022-02-21T04:13:00,75s,2.69
2022-02-21T04:14:00,75s,2.86
2022-02-21T04:15:00,75s,3.05
2022-02-21T04:16:00,75s,2.75
2022-02-21T04:17:00,75s,2.66
2022-02-21T04:18:00,75s,2.62
2022-02-21T04:19:00,75s,2.54
2022-02-21T04:20:00,75s,3.00
2022-02-21T04:21:00,75s,2.65
2022-02-21T04:22:00,75s,3.23
2022-02-21T04:23:00,75s,2.65
2022-02-21T04:24:00,75s,2.56
2022-02-21T04:25:00,75s,2.81
2022-02-21T04:26:00,75s,3.11
2022-02-21T04:27:00,75s,2.63
2022-02-21T04:28:00,75s,2.81
2022-02-21T04:29:00,75s,3.04
2022-02-21T04:30:00,75s,2.65
2022-02-21T04:31:00,75s,2.68
2022-02-21T04:32:00,75s,2.72
2022-02-21T04:33:00,75s,2.73
2022-02-21T04:34:00,75s,3.12
2022-02-21T04:35:00,75s,2.82
2022-02-21T04:36:00,75s,2.82
2022-02-21T04:37:00,75s,2.91
2022-02-21T04:38:00,75s,2.94
2022-02-21T04:39:00,75s,2.97
2022-02-21T04:40:00,75s,2.88
2022-02-21T04:41:00,75s,2.81
2022-02-21T04:42:00,75s,3.61
2022-02-21T04:43:00,75s,2.88
2022-02-21T04:44:00,75s,2.89
2022-02-21T04:45:00,75s,2.90
2022-02-21T04:46:00,75s,2.82
2022-02-21T04:47:00,75s,2.85
2022-02-21T04:48:00,75s,2.96
2022-02-21T04:49:00,75s,3.42
2022-02-21T04:50:00,75s,2.95
2022-02-21T04:51:00,75s,2.84
2022-02-21T04:52:00,75s,3.16
2022-02-21T04:53:00,75s,2.90
2022-02-21T04:54:00,75s,3.52
2022-02-21T04:55:00,75s,2.96
2022-02-21T04:56:00,75s,3.15
2022-02-21T04:57:00,75s,3.23
2022-02-21T04:58:00,75s,3.12
2022-02-21T04:59:00,75s,3.59
2022-02-21T05:00:00,75s,3.83
2022-02-21T05:01:00,75s,3.09
2022-02-21T05:02:00,75s,3.46
2022-02-21T05:03:00,75s,3.08
2022-02-21T05:04:00,75s,3.10
2022-02-21T05:05:00,75s,3.10
2022-02-21T05:06:00,75s,3.18
2022-02-21T05:07:00,75s,3.36
2022-02-21T05:08:00,75s,3.00
2022-02-21T05:09:00,75s,12.38
2022-02-21T05:10:00,75s,11.91
2022-02-21T05:11:00,75s,11.81
2022-02-21T05:12:00,75s,11.68
2022-02-21T05:13:00,75s,11.93
2022-02-21T05:14:00,75s,3.34
2022-02-21T05:15:00,75s,3.38
2022-02-21T05:16:00,75s,3.42
2022-02-21T05:17:00,75s,3.62
2022-02-21T05:18:00,75s,3.65
2022-02-21T05:19:00,75s,3.72
2022-02-21T05:20:00,75s,3.68
2022-02-21T05:21:00,75s,3.65
2022-02-21T05:22:00,75s,3.72
2022-02-21T05:23:00,75s,3.74
2022-02-21T05:24:00,75s,3.74
2022-02-21T05:25:00,75s,3.77
2022-02-21T05:26:00,75s,3.73
2022-02-21T05:27:00,75s,3.73
2022-02-21T05:28:00,75s,3.74
2022-02-21T05:29:00,75s,3.76
2022-02-21T05:30:00,75s,3.64
2022-02-21T05:31:00,75s,3.62
2022-02-21T05:32:00,75s,4.00
2022-02-21T05:33:00,75s,3.62
2022-02-21T05:34:00,75s,3.63
2022-02-21T05:35:00,75s,3.64
2022-02-21T05:36:00,75s,3.55
2022-02-21T05:37:00,75s,3.64
2022-02-21T05:38:00,75s,4.09
2022-02-21T05:39:00,75s,3.64
2022-02-21T05:40:00,75s,3.68
2022-02-21T05:41:00,75s,3.68
2022-02-21T05:42:00,75s,3.69
2022-02-21T05:43:00,75s,3.65
2022-02-21T05:44:00,75s,3.66
2022-02-21T05:45:00,75s,3.68
2022-02-21T05:46:00,75s,3.70
2022-02-21T05:47:00,75s,3.63
2022-02-21T05:48:00,75s,3.65
2022-02-21T05:49:00,75s,3.66
2022-02-21T05:50:00,75s,3.72
2022-02-21T05:51:00,75s,3.73
2022-02-21T05:52:00,75s,3.75
2022-02-21T05:53:00,75s,3.81
2022-02-21T05:54:00,75s,3.77
2022-02-21T05:55:00,75s,4.10
2022-02-21T05:56:00,75s,3.73
2022-02-21T05:57:00,75s,3.72
2022-02-21T05:58:00,75s,3.72
2022-02-21T05:59:00,75s,3.70
2022-02-21T06:00:00,75s,3.88
2022-02-21T06:01:00,75s,3.69
2022-02-21T06:02:00,75s,3.73
2022-02-21T06:03:00,75s,14.36
2022-02-21T06:04:00,75s,3.91
2022-02-21T06:05:00,75s,3.86
2022-02-21T06:06:00,75s,3.77
2022-02-21T06:07:00,75s,3.80
2022-02-21T06:08:00,75s,3.80
2022-02-21T06:09:00,75s,3.78
2022-02-21T06:10:00,75s,3.78
2022-02-21T06:11:00,75s,3.79
2022-02-21T06:12:00,75s,3.80
2022-02-21T06:13:00,75s,3.82
2022-02-21T06:14:00,75s,4.13
2022-02-21T06:15:00,75s,4.00
2022-02-21T06:16:00,75s,4.03
2022-02-21T06:17:00,75s,4.12
2022-02-21T06:18:00,75s,4.66
2022-02-21T06:19:00,75s,3.88
2022-02-21T06:20:00,75s,4.00
2022-02-21T06:21:00,75s,3.97
2022-02-21T06:22:00,75s,4.12
2022-02-21T06:23:00,75s,3.73
2022-02-21T06:24:00,75s,3.76
2022-02-21T06:25:00,75s,3.73
2022-02-21T06:26:00,75s,3.93
2022-02-21T06:27:00,75s,3.95
2022-02-21T06:28:00,75s,4.18
2022-02-21T06:29:00,75s,3.77
2022-02-21T06:30:00,75s,3.76
2022-02-21T06:31:00,75s,3.90
2022-02-21T06:32:00,75s,3.90
2022-02-21T06:33:00,75s,3.93
2022-02-21T06:34:00,75s,3.82
2022-02-21T06:35:00,75s,4.16
2022-02-21T06:36:00,75s,3.77
2022-02-21T06:37:00,75s,3.85
2022-02-21T06:38:00,75s,3.96
2022-02-21T06:39:00,75s,4.46
2022-02-21T06:40:00,75s,3.98
2022-02-21T06:41:00,75s,3.92
2022-02-21T06:42:00,75s,3.87
2022-02-21T06:43:00,75s,3.57
2022-02-21T06:44:00,75s,3.47
2022-02-21T06:45:00,75s,3.45
2022-02-21T06:46:00,75s,3.67
2022-02-21T06:47:00,75s,3.47
2022-02-21T06:48:00,75s,3.52
2022-02-21T06:49:00,75s,3.60
2022-02-21T06:50:00,75s,3.69
2022-02-21T06:51:00,75s,3.62
2022-02-21T06:52:00,75s,3.89
2022-02-21T06:53:00,75s,3.91
2022-02-21T06:54:00,75s,3.96
2022-02-21T06:55:00,75s,4.10
2022-02-21T06:56:00,75s,3.95
2022-02-21T06:57:00,75s,3.94
2022-02-21T06:58:00,75s,3.88
2022-02-21T06:59:00,75s,3.95
2022-02-21T07:00:00,75s,4.06
2022-02-21T07:01:00,75s,3.98
2022-02-21T07:02:00,75s,3.82
2022-02-21T07:03:00,75s,3.73
2022-02-21T07:04:00,75s,3.76
2022-02-21T07:05:00,75s,3.75
2022-02-21T07:06:00,75s,3.75
2022-02-21T07:07:00,75s,3.74
2022-02-21T07:08:00,75s,3.70
2022-02-21T07:09:00,75s,3.71
2022-02-21T07:10:00,75s,3.73
2022-02-21T07:11:00,75s,3.88
2022-02-21T07:12:00,75s,3.78
2022-02-21T07:13:00,75s,3.76
2022-02-21T07:14:00,75s,3.59
2022-02-21T07:15:00,75s,3.64
2022-02-21T07:16:00,75s,3.64
2022-02-21T07:17:00,75s,3.95
2022-02-21T07:18:00,75s,3.63
2022-02-21T07:19:00,75s,3.72
2022-02-21T07:20:00,75s,3.71
2022-02-21T07:21:00,75s,3.70
2022-02-21T07:22:00,75s,3.81
2022-02-21T07:23:00,75s,4.12
2022-02-21T07:24:00,75s,4.15
2022-02-21T07:25:00,75s,4.14
2022-02-21T07:26:00,75s,4.10
2022-02-21T07:27:00,75s,4.10
2022-02-21T07:28:00,75s,4.10
2022-02-21T07:29:00,75s,4.08
2022-02-21T07:30:00,75s,4.26
2022-02-21T07:31:00,75s,3.86
2022-02-21T07:32:00,75s,3.90
2022-02-21T07:33:00,75s,3.88
2022-02-21T07:34:00,75s,3.88
2022-02-21T07:35:00,75s,3.90
2022-02-21T07:36:00,75s,3.89
2022-02-21T07:37:00,75s,3.89
2022-02-21T07:38:00,75s,3.89
2022-02-21T07:39:00,75s,3.89
2022-02-21T07:40:00,75s,3.96
2022-02-21T07:41:00,75s,4.04
2022-02-21T07:42:00,75s,4.08
2022-02-21T07:43:00,75s,4.03
2022-02-21T07:44:00,75s,4.08
2022-02-21T07:45:00,75s,4.09
2022-02-21T07:46:00,75s,4.07
2022-02-21T07:47:00,75s,13.14
2022-02-21T07:48:00,75s,13.09
2022-02-21T07:49:00,75s,12.95
2022-02-21T07:50:00,75s,12.89
2022-02-21T07:51:00,75s,12.81
2022-02-21T07:52:00,75s,12.71
2022-02-21T07:53:00,75s,4.20
2022-02-21T07:54:00,75s,4.53
2022-02-21T07:55:00,75s,4.23
2022-02-21T07:56:00,75s,4.40
2022-02-21T07:57:00,75s,4.45
2022-02-21T07:58:00,75s,3.97
2022-02-21T07:59:00,75s,3.90
2022-02-21T08:00:00,75s,3.82
2022-02-21T08:01:00,75s,4.10
2022-02-21T08:02:00,75s,4.02
2022-02-21T08:03:00,75s,4.03
2022-02-21T08:04:00,75s,4.14
2022-02-21T08:05:00,75s,4.16
2022-02-21T08:06:00,75s,4.17
2022-02-21T08:07:00,75s,4.11
2022-02-21T08:08:00,75s,4.52
2022-02-21T08:09:00,75s,4.98
2022-02-21T08:10:00,75s,4.24
2022-02-21T08:11:00,75s,4.78
2022-02-21T08:12:00,75s,4.14
2022-02-21T08:13:00,75s,4.24
2022-02-21T08:14:00,75s,4.51
2022-02-21T08:15:00,75s,4.48
2022-02-21T08:16:00,75s,4.43
2022-02-21T08:17:00,75s,4.40
2022-02-21T08:18:00,75s,4.13
2022-02-21T08:19:00,75s,4.13
2022-02-21T08:20:00,75s,4.80
2022-02-21T08:21:00,75s,4.24
2022-02-21T08:22:00,75s,4.46
2022-02-21T08:23:00,75s,4.17
2022-02-21T08:24:00,75s,4.12
2022-02-21T08:25:00,75s,4.07
2022-02-21T08:26:00,75s,4.08
2022-02-21T08:27:00,75s,4.11
2022-02-21T08:28:00,75s,4.13
2022-02-21T08:29:00,75s,4.04
2022-02-21T08:30:00,75s,3.96
2022-02-21T08:31:00,75s,3.97
2022-02-21T08:32:00,75s,4.08
2022-02-21T08:33:00,75s,4.29
2022-02-21T08:34:00,75s,5.15
2022-02-21T08:35:00,75s,4.24
2022-02-21T08:36:00,75s,4.24
2022-02-21T08:37:00,75s,4.21
2022-02-21T08:38:00,75s,4.67
2022-02-21T08:39:00,75s,4.18
2022-02-21T08:40:00,75s,4.16
2022-02-21T08:41:00,75s,14.44
2022-02-21T08:42:00,75s,4.19
2022-02-21T08:43:00,75s,4.25
2022-02-21T08:44:00,75s,4.42
2022-02-21T08:45:00,75s,4.38
2022-02-21T08:46:00,75s,4.47
2022-02-21T08:47:00,75s,4.33
2022-02-21T08:48:00,75s,4.38
2022-02-21T08:49:00,75s,4.44
2022-02-21T08:50:00,75s,4.99
2022-02-21T08:51:00,75s,4.07
2022-02-21T08:52:00,75s,4.05
2022-02-21T08:53:00,75s,5.00
2022-02-21T08:54:00,75s,4.76
2022-02-21T08:55:00,75s,5.00
2022-02-21T08:56:00,75s,4.26
2022-02-21T08:57:00,75s,4.85
2022-02-21T08:58:00,75s,4.82
2022-02-21T08:59:00,75s,4.79
2022-02-21T09:00:00,75s,4.90
2022-02-21T09:01:00,75s,4.90
2022-02-21T09:02:00,75s,4.96
2022-02-21T09:03:00,75s,5.07
2022-02-21T09:04:00,75s,5.05
2022-02-21T09:05:00,75s,5.36
2022-02-21T09:06:00,75s,5.89
2022-02-21T09:07:00,75s,5.55
2022-02-21T09:08:00,75s,15.88
2022-02-21T09:09:00,75s,6.13
2022-02-21T09:10:00,75s,5.58
2022-02-21T09:11:00,75s,5.42
2022-02-21T09:12:00,75s,5.82
2022-02-21T09:13:00,75s,5.77
2022-02-21T09:14:00,75s,5.78
2022-02-21T09:15:00,75s,5.90
2022-02-21T09:16:00,75s,5.86
2022-02-21T09:17:00,75s,6.19
2022-02-21T09:18:00,75s,5.86
2022-02-21T09:19:00,75s,5.76
2022-02-21T09:20:00,75s,5.62
2022-02-21T09:21:00,75s,6.53
2022-02-21T09:22:00,75s,5.68
2022-02-21T09:23:00,75s,6.42
2022-02-21T09:24:00,75s,6.41
2022-02-21T09:25:00,75s,6.24
2022-02-21T09:26:00,75s,6.28
2022-02-21T09:27:00,75s,6.40
2022-02-21T09:28:00,75s,6.36
2022-02-21T09:29:00,75s,5.77
2022-02-21T09:30:00,75s,6.52
2022-02-21T09:31:00,75s,6.02
2022-02-21T09:32:00,75s,5.68
2022-02-21T09:33:00,75s,5.75
2022-02-21T09:34:00,75s,5.96
2022-02-21T09:35:00,75s,6.09
2022-02-21T09:36:00,75s,6.04
2022-02-21T09:37:00,75s,6.24
2022-02-21T09:38:00,75s,6.61
2022-02-21T09:39:00,75s,7.22
2022-02-21T09:40:00,75s,6.66
2022-02-21T09:41:00,75s,6.18
2022-02-21T09:42:00,75s,7.27
2022-02-21T09:43:00,75s,6.56
2022-02-21T09:44:00,75s,6.49
2022-02-21T09:45:00,75s,6.71
2022-02-21T09:46:00,75s,6.69
2022-02-21T09:47:00,75s,6.82
2022-02-21T09:48:00,75s,6.84
2022-02-21T09:49:00,75s,6.95
2022-02-21T09:50:00,75s,6.91
2022-02-21T09:51:00,75s,6.92
2022-02-21T09:52:00,75s,6.97
2022-02-21T09:53:00,75s,6.92
2022-02-21T09:54:00,75s,6.95
2022-02-21T09:55:00,75s,7.13
2022-02-21T09:56:00,75s,6.77
2022-02-21T09:57:00,75s,6.82
2022-02-21T09:58:00,75s,6.49
2022-02-21T09:59:00,75s,6.55
2022-02-21T10:00:00,75s,15.67
2022-02-21T10:01:00,75s,15.53
2022-02-21T10:02:00,75s,15.76
2022-02-21T10:03:00,75s,15.64
2022-02-21T10:04:00,75s,15.26
2022-02-21T10:05:00,75s,15.93
2022-02-21T10:06:00,75s,6.66
2022-02-21T10:07:00,75s,6.63
2022-02-21T10:08:00,75s,7.63
2022-02-21T10:09:00,75s,6.72
2022-02-21T10:10:00,75s,7.30
2022-02-21T10:11:00,75s,6.62
2022-02-21T10:12:00,75s,6.42
2022-02-21T10:13:00,75s,7.45
2022-02-21T10:14:00,75s,7.57
2022-02-21T10:15:00,75s,7.11
2022-02-21T10:16:00,75s,8.05
2022-02-21T10:17:00,75s,7.03
2022-02-21T10:18:00,75s,6.92
2022-02-21T10:19:00,75s,6.95
2022-02-21T10:20:00,75s,7.04
2022-02-21T10:21:00,75s,7.42
2022-02-21T10:22:00,75s,6.90
2022-02-21T10:23:00,75s,6.70
2022-02-21T10:24:00,75s,7.56
2022-02-21T10:25:00,75s,7.29
2022-02-21T10:26:00,75s,6.77
2022-02-21T10:27:00,75s,7.82
2022-02-21T10:28:00,75s,7.26
2022-02-21T10:29:00,75s,7.10
2022-02-21T10:30:00,75s,6.98
2022-02-21T10:31:00,75s,6.88
2022-02-21T10:32:00,75s,7.40
2022-02-21T10:33:00,75s,7.01
2022-02-21T10:34:00,75s,7.01
2022-02-21T10:35:00,75s,7.07
2022-02-21T10:36:00,75s,7.09
2022-02-21T10:37:00,75s,7.55
2022-02-21T10:38:00,75s,7.61
2022-02-21T10:39:00,75s,7.30
2022-02-21T10:40:00,75s,7.30
2022-02-21T10:41:00,75s,7.53
2022-02-21T10:42:00,75s,7.55
2022-02-21T10:43:00,75s,7.19
2022-02-21T10:44:00,75s,7.31
2022-02-21T10:45:00,75s,7.33
2022-02-21T10:46:00,75s,7.32
2022-02-21T10:47:00,75s,7.17
2022-02-21T10:48:00,75s,7.18
2022-02-21T10:49:00,75s,7.30
2022-02-21T10:50:00,75s,8.08
2022-02-21T10:51:00,75s,7.36
2022-02-21T10:52:00,75s,7.26
2022-02-21T10:53:00,75s,7.42
2022-02-21T10:54:00,75s,7.18
2022-02-21T10:55:00,75s,7.16
2022-02-21T10:56:00,75s,7.18
2022-02-21T10:57:00,75s,7.57
2022-02-21T10:58:00,75s,7.17
2022-02-21T10:59:00,75s,7.75
2022-02-21T11:00:00,75s,7.76
2022-02-21T11:01:00,75s,7.68
2022-02-21T11:02:00,75s,6.63
2022-02-21T11:03:00,75s,7.49
2022-02-21T11:04:00,75s,6.56
2022-02-21T11:05:00,75s,7.18
2022-02-21T11:06:00,75s,6.72
2022-02-21T11:07:00,75s,6.80
2022-02-21T11:08:00,75s,6.51
2022-02-21T11:09:00,75s,6.74
2022-02-21T11:10:00,75s,6.51
2022-02-21T11:11:00,75s,7.14
2022-02-21T11:12:00,75s,6.98
2022-02-21T11:13:00,75s,6.84
2022-02-21T11:14:00,75s,6.75
2022-02-21T11:15:00,75s,6.77
2022-02-21T11:16:00,75s,6.99
2022-02-21T11:17:00,75s,6.63
2022-02-21T11:18:00,75s,6.66
2022-02-21T11:19:00,75s,6.70
2022-02-21T11:20:00,75s,6.72
2022-02-21T11:21:00,75s,6.94
2022-02-21T11:22:00,75s,6.97
2022-02-21T11:23:00,75s,6.75
2022-02-21T11:24:00,75s,6.97
2022-02-21T11:25:00,75s,7.32
2022-02-21T11:26:00,75s,6.65
2022-02-21T11:27:00,75s,6.74
2022-02-21T11:28:00,75s,6.54
2022-02-21T11:29:00,75s,6.82
2022-02-21T11:30:00,75s,6.66
2022-02-21T11:31:00,75s,6.63
2022-02-21T11:32:00,75s,6.51
2022-02-21T11:33:00,75s,6.37
2022-02-21T11:34:00,75s,6.49
2022-02-21T11:35:00,75s,6.24
2022-02-21T11:36:00,75s,7.27
2022-02-21T11:37:00,75s,6.47
2022-02-21T11:38:00,75s,6.87
2022-02-21T11:39:00,75s,7.29
2022-02-21T11:40:00,75s,6.43
2022-02-21T11:41:00,75s,6.33
2022-02-21T11:42:00,75s,6.50
2022-02-21T11:43:00,75s,6.62
2022-02-21T11:44:00,75s,6.97
2022-02-21T11:45:00,75s,6.57
2022-02-21T11:46:00,75s,6.56
2022-02-21T11:47:00,75s,7.24
2022-02-21T11:48:00,75s,8.70
2022-02-21T11:49:00,75s,8.03
2022-02-21T11:50:00,75s,6.66
2022-02-21T11:51:00,75s,6.70
2022-02-21T11:52:00,75s,6.50
2022-02-21T11:53:00,75s,6.78
2022-02-21T11:54:00,75s,6.59
2022-02-21T11:55:00,75s,6.67
2022-02-21T11:56:00,75s,6.97
2022-02-21T11:57:00,75s,7.47
2022-02-21T11:58:00,75s,6.53
2022-02-21T11:59:00,75s,6.62
2022-02-21T12:00:00,75s,6.54
2022-02-21T12:01:00,75s,6.76
2022-02-21T12:02:00,75s,6.41
2022-02-21T12:03:00,75s,6.29
2022-02-21T12:04:00,75s,6.36
2022-02-21T12:05:00,75s,6.51
2022-02-21T12:06:00,75s,6.74
2022-02-21T12:07:00,75s,6.62
2022-02-21T12:08:00,75s,6.37
2022-02-21T12:09:00,75s,6.22
2022-02-21T12:10:00,75s,6.34
2022-02-21T12:11:00,75s,6.87
2022-02-21T12:12:00,75s,6.61
2022-02-21T12:13:00,75s,6.65
2022-02-21T12:14:00,75s,17.31
2022-02-21T12:15:00,75s,6.82
2022-02-21T12:16:00,75s,7.05
2022-02-21T12:17:00,75s,7.95
2022-02-21T12:18:00,75s,7.66
2022-02-21T12:19:00,75s,6.82
2022-02-21T12:20:00,75s,7.60
2022-02-21T12:21:00,75s,7.78
2022-02-21T12:22:00,75s,6.85
2022-02-21T12:23:00,75s,7.50
2022-02-21T12:24:00,75s,7.03
2022-02-21T12:25:00,75s,7.45
2022-02-21T12:26:00,75s,6.89
2022-02-21T12:27:00,75s,6.77
2022-02-21T12:28:00,75s,6.69
2022-02-21T12:29:00,75s,7.76
2022-02-21T12:30:00,75s,7.93
2022-02-21T12:31:00,75s,7.15
2022-02-21T12:32:00,75s,7.32
2022-02-21T12:33:00,75s,7.19
2022-02-21T12:34:00,75s,6.87
2022-02-21T12:35:00,75s,6.98
2022-02-21T12:36:00,75s,6.94
2022-02-21T12:37:00,75s,6.80
2022-02-21T12:38:00,75s,6.95
2022-02-21T12:39:00,75s,6.89
2022-02-21T12:40:00,75s,7.16
2022-02-21T12:41:00,75s,7.62
2022-02-21T12:42:00,75s,7.71
2022-02-21T12:43:00,75s,7.45
2022-02-21T12:44:00,75s,7.44
2022-02-21T12:45:00,75s,7.17
2022-02-21T12:46:00,75s,7.98
2022-02-21T12:47:00,75s,7.05
2022-02-21T12:48:00,75s,7.17
2022-02-21T12:49:00,75s,7.25
2022-02-21T12:50:00,75s,7.80
2022-02-21T12:51:00,75s,7.30
2022-02-21T12:52:00,75s,7.36
2022-02-21T12:53:00,75s,7.73
2022-02-21T12:54:00,75s,16.20
2022-02-21T12:55:00,75s,16.22
2022-02-21T12:56:00,75s,16.42
2022-02-21T12:57:00,75s,16.09
2022-02-21T12:58:00,75s,15.97
2022-02-21T12:59:00,75s,7.45
2022-02-21T13:00:00,75s,7.57
2022-02-21T13:01:00,75s,7.26
2022-02-21T13:02:00,75s,7.29
2022-02-21T13:03:00,75s,7.35
2022-02-21T13:04:00,75s,7.47
2022-02-21T13:05:00,75s,7.46
2022-02-21T13:06:00,75s,7.44
2022-02-21T13:07:00,75s,7.39
2022-02-21T13:08:00,75s,7.30
2022-02-21T13:09:00,75s,7.44
2022-02-21T13:10:00,75s,8.16
2022-02-21T13:11:00,75s,8.43
2022-02-21T13:12:00,75s,8.21
2022-02-21T13:13:00,75s,7.65
2022-02-21T13:14:00,75s,7.58
2022-02-21T13:15:00,75s,7.61
2022-02-21T13:16:00,75s,7.79
2022-02-21T13:17:00,75s,7.41
2022-02-21T13:18:00,75s,7.27
2022-02-21T13:19:00,75s,7.56
2022-02-21T13:20:00,75s,7.34
2022-02-21T13:21:00,75s,7.39
2022-02-21T13:22:00,75s,7.51
2022-02-21T13:23:00,75s,7.52
2022-02-21T13:24:00,75s,7.78
2022-02-21T13:25:00,75s,7.53
2022-02-21T13:26:00,75s,7.29
2022-02-21T13:27:00,75s,7.37
2022-02-21T13:28:00,75s,7.41
2022-02-21T13:29:00,75s,7.54
2022-02-21T13:30:00,75s,7.29
2022-02-21T13:31:00,75s,7.93
2022-02-21T13:32:00,75s,7.29
2022-02-21T13:33:00,75s,7.43
2022-02-21T13:34:00,75s,6.95
2022-02-21T13:35:00,75s,6.83
2022-02-21T13:36:00,75s,6.79
2022-02-21T13:37:00,75s,6.81
2022-02-21T13:38:00,75s,6.54
2022-02-21T13:39:00,75s,6.46
2022-02-21T13:40:00,75s,7.05
2022-02-21T13:41:00,75s,7.08
2022-02-21T13:42:00,75s,7.09
2022-02-21T13:43:00,75s,7.71
2022-02-21T13:44:00,75s,7.41